Date String (YYYY-MM-DD hh:mm:ss) UTC,Instrument flags,Ambient pressure (hPa),Sample flow (lpm),Bypass flow (lpm),Sample temperature (°C),Ambient temperature (°C),ASC tube jacket temperature (°C),LED temperature (°C),Box temperature (°C),Sample RH (%),Span deviation,Mass concentration (μg/m³),Mass concentration (μg/m³),Mass concentration (μg/m³)
DateTimeUTC,F1_M11,P_M11,Q1_M11,Q2_M11,T1_M11,T2_M11,T3_M11,T4_M11,T5_M11,U1_M11,ZSPAN_M11,X2_M11,X0_M11,X1_M11
2023-04-28 14:00:00,,0835.5,5.00,0.00,21.8,20.4,00.0,30.3,23.2,19.8,0000.0,0002.67,0003.77,0002.16
2023-04-28 14:01:00,,0835.5,4.99,0.00,21.8,20.3,00.0,30.3,23.2,20.0,0000.0,0002.88,0004.16,0002.28
2023-04-28 14:02:00,,0835.5,5.00,0.00,21.8,20.3,00.0,30.2,23.2,19.9,0000.0,0003.04,0004.56,0002.41
2023-04-28 14:03:00,,0835.6,5.00,0.00,21.8,20.5,00.0,30.2,23.3,20.4,0000.0,0003.19,0005.34,0002.55
2023-04-28 14:04:00,,0835.5,5.01,0.00,21.9,21.8,00.0,30.2,23.8,20.4,0000.0,0003.26,0005.50,0002.68
2023-04-28 14:05:00,,0835.6,4.99,0.00,22.1,23.1,00.0,30.2,24.2,19.9,0000.0,0003.31,0005.61,0002.79
2023-04-28 14:06:00,,0835.5,4.99,0.00,22.2,23.2,00.0,30.3,24.2,20.2,0000.0,0003.39,0005.79,0002.89
2023-04-28 14:07:00,,0835.5,5.01,0.00,22.2,22.8,00.0,30.4,24.1,19.5,0000.0,0003.46,0005.92,0003.00
2023-04-28 14:08:00,,0835.5,5.01,0.00,22.3,22.6,00.0,30.4,24.0,19.2,0000.0,0003.52,0006.12,0003.07
2023-04-28 14:09:00,,0835.5,5.00,0.00,22.3,22.3,00.0,30.5,23.9,18.8,0000.0,0003.56,0006.37,0003.10
2023-04-28 14:10:00,,0835.5,4.99,0.00,22.3,22.0,00.0,30.5,23.9,19.0,0000.0,0003.58,0006.42,0003.10
2023-04-28 14:11:00,,0835.6,5.00,0.00,22.3,21.8,00.0,30.5,23.9,19.2,0000.0,0003.61,0006.39,0003.12
2023-04-28 14:12:00,,0835.6,5.00,0.00,22.3,21.6,00.0,30.5,23.8,19.1,0000.0,0003.56,0006.18,0003.11
2023-04-28 14:13:00,,0835.6,5.00,0.00,22.2,21.5,00.0,30.5,23.8,19.0,0000.0,0003.53,0006.04,0003.07
2023-04-28 14:14:00,,0835.6,5.00,0.00,22.2,21.4,00.0,30.6,23.8,19.3,0000.0,0003.49,0005.55,0003.03
2023-04-28 14:15:00,,0835.6,5.00,0.00,22.2,21.2,00.0,30.6,23.7,19.0,0000.0,0003.47,0005.67,0002.97
2023-04-28 14:16:00,,0835.6,5.00,0.00,22.2,21.1,00.0,30.6,23.7,18.9,0000.0,0003.48,0006.39,0002.92
2023-04-28 14:17:00,,0835.6,5.00,0.00,22.2,21.0,00.0,30.6,23.7,18.0,0000.0,0003.46,0006.70,0002.86
2023-04-28 14:18:00,,0835.6,5.01,0.00,22.2,20.9,00.0,30.6,23.6,17.5,0000.0,0003.40,0006.74,0002.79
2023-04-28 14:19:00,,0835.6,5.00,0.00,22.1,20.8,00.0,30.6,23.6,17.8,0000.0,0003.36,0006.61,0002.72
2023-04-28 14:20:00,,0835.6,5.00,0.00,22.1,20.8,00.0,30.6,23.6,17.1,0000.0,0003.28,0006.31,0002.62
2023-04-28 14:21:00,,0835.6,5.00,0.00,22.1,20.7,00.0,30.6,23.5,17.0,0000.0,0003.23,0006.16,0002.56
2023-04-28 14:22:00,,0835.6,5.00,0.00,22.1,20.7,00.0,30.5,23.5,17.7,0000.0,0003.18,0006.14,0002.50
2023-04-28 14:23:00,,0835.6,5.01,0.00,22.1,20.6,00.0,30.5,23.5,17.6,0000.0,0003.16,0006.20,0002.44
2023-04-28 14:24:00,,0835.6,5.02,0.00,22.0,20.6,00.0,30.5,23.5,17.5,0000.0,0003.12,0006.27,0002.41
2023-04-28 14:25:00,,0835.6,4.99,0.00,22.0,20.6,00.0,30.5,23.5,18.1,0000.0,0003.10,0007.09,0002.38
2023-04-28 14:26:00,,0835.6,4.99,0.00,22.0,20.5,00.0,30.5,23.5,18.4,0000.0,0003.08,0007.10,0002.36
2023-04-28 14:27:00,,0835.7,4.99,0.00,22.0,20.5,00.0,30.5,23.5,17.8,0000.0,0003.04,0006.64,0002.35
2023-04-28 14:28:00,,0835.6,5.01,0.00,22.0,20.6,00.0,30.5,23.5,17.1,0000.0,0002.99,0006.19,0002.32
2023-04-28 14:29:00,,0835.6,5.01,0.00,22.0,20.7,00.0,30.5,23.5,17.8,0000.0,0003.03,0005.97,0002.31
2023-04-28 14:30:00,,0835.6,5.00,0.00,22.0,20.7,00.0,30.5,23.5,18.0,0000.0,0003.02,0006.02,0002.31
2023-04-28 14:31:00,,0835.8,5.00,0.00,22.0,20.7,00.0,30.5,23.5,17.5,0000.0,0003.02,0006.07,0002.31
2023-04-28 14:32:00,,0835.6,4.99,0.00,22.0,20.8,00.0,30.5,23.5,17.8,0000.0,0002.98,0005.92,0002.31
2023-04-28 14:33:00,,0835.6,5.00,0.00,22.0,20.7,00.0,30.5,23.5,17.5,0000.0,0002.98,0005.75,0002.33
2023-04-28 14:34:00,,0835.6,4.99,0.00,22.0,20.7,00.0,30.5,23.5,17.6,0000.0,0002.95,0005.68,0002.34
2023-04-28 14:35:00,,0835.6,5.00,0.00,22.0,20.7,00.0,30.5,23.5,18.4,0000.0,0002.97,0005.33,0002.39
2023-04-28 14:36:00,,0835.6,5.00,0.00,22.0,20.7,00.0,30.5,23.5,18.6,0000.0,0003.01,0004.93,0002.42
2023-04-28 14:37:00,,0835.6,5.00,0.00,22.0,20.7,00.0,30.4,23.4,18.0,0000.0,0003.03,0004.19,0002.46
2023-04-28 14:38:00,,0835.6,5.01,0.00,22.0,20.7,00.0,30.4,23.5,18.5,0000.0,0003.02,0004.06,0002.51
2023-04-28 14:39:00,,0835.5,5.00,0.00,22.0,20.7,00.0,30.4,23.5,18.1,0000.0,0003.02,0003.95,0002.56
2023-04-28 14:40:00,,0835.7,5.00,0.00,22.0,20.7,00.0,30.4,23.5,18.3,0000.0,0003.01,0003.79,0002.63
2023-04-28 14:41:00,,0835.5,5.00,0.00,22.0,20.7,00.0,30.4,23.5,18.2,0000.0,0003.07,0003.81,0002.70
2023-04-28 14:42:00,,0835.5,5.00,0.00,22.0,20.7,00.0,30.4,23.5,17.5,0000.0,0003.10,0003.75,0002.76
2023-04-28 14:43:00,,0835.5,5.01,0.00,22.0,20.6,00.0,30.4,23.5,17.7,0000.0,0003.12,0003.83,0002.79
2023-04-28 14:44:00,,0835.5,5.00,0.00,22.0,20.7,00.0,30.4,23.4,17.9,0000.0,0003.15,0003.88,0002.81
2023-04-28 14:45:00,,0835.5,4.99,0.00,22.0,20.8,00.0,30.4,23.5,17.8,0000.0,0003.15,0003.84,0002.82
2023-04-28 14:46:00,,0835.5,5.00,0.00,22.1,20.8,00.0,30.4,23.5,17.6,0000.0,0003.16,0003.90,0002.81
2023-04-28 14:47:00,,0835.5,5.00,0.00,22.1,20.8,00.0,30.4,23.5,18.1,0000.0,0003.13,0004.33,0002.76
2023-04-28 14:48:00,,0835.5,5.00,0.00,22.1,20.8,00.0,30.4,23.5,17.4,0000.0,0003.12,0004.82,0002.73
2023-04-28 14:49:00,,0835.5,5.00,0.00,22.0,20.7,00.0,30.4,23.5,17.5,0000.0,0003.06,0004.72,0002.67
2023-04-28 14:50:00,,0835.5,5.01,0.00,22.0,20.7,00.0,30.4,23.5,17.5,0000.0,0003.01,0004.64,0002.63
2023-04-28 14:51:00,,0835.5,5.01,0.00,22.0,20.7,00.0,30.4,23.5,16.8,0000.0,0002.94,0004.62,0002.57
2023-04-28 14:52:00,,0835.5,5.00,0.00,22.0,20.7,00.0,30.4,23.5,17.2,0000.0,0002.90,0004.56,0002.53
2023-04-28 14:53:00,,0835.6,5.00,0.00,22.0,20.7,00.0,30.4,23.5,17.2,0000.0,0002.84,0004.53,0002.50
2023-04-28 14:54:00,,0835.5,4.99,0.00,22.0,20.7,00.0,30.4,23.5,16.5,0000.0,0002.82,0004.52,0002.47
2023-04-28 14:55:00,,0835.6,4.99,0.00,22.0,20.8,00.0,30.4,23.5,16.7,0000.0,0002.77,0004.60,0002.43
2023-04-28 14:56:00,,0835.6,5.00,0.00,22.1,20.8,00.0,30.4,23.5,15.7,0000.0,0002.71,0004.56,0002.37
2023-04-28 14:57:00,,0835.5,5.01,0.00,22.1,20.8,00.0,30.4,23.5,14.6,0000.0,0002.59,0004.38,0002.30
2023-04-28 14:58:00,,0835.5,5.00,0.00,22.1,20.8,00.0,30.5,23.5,14.7,0000.0,0002.50,0003.95,0002.21
2023-04-28 14:59:00,,0835.5,5.00,0.00,22.1,20.8,00.0,30.5,23.5,16.6,0000.0,0002.42,0003.20,0002.15
